Location: Unspecified
(0.0000°N, 0.0000°E)
Time: 16:57:56
(UTC+00:00)

ATLAS 5 CENTAUR R/B DEB - Visible Passes

Search period start: 14 January 2026 00:00
Search period end: 24 January 2026 00:00
Orbit: 9439 x 35585 km, 11.4° (Epoch: 4 July)

Date Brightness Start Highest point End Pass type
(mag) Time Alt. Az. Time Alt. Az. Time Alt. Az.
14 Jan ? 16:47:03 10° WSW 17:52:30 77° SSE 05:38:28 10° E daylight
15 Jan ? 20:42:26 10° WSW 23:41:11 70° WNW 09:34:39 10° ESE visible
17 Jan ? 01:42:44 10° W 03:13:02 16° W 05:34:32 10° W visible
18 Jan ? 15:37:31 10° W 16:36:42 74° S 04:25:27 10° E visible
19 Jan ? 19:32:10 10° WSW 22:20:49 82° WNW 08:26:00 10° E visible
20 Jan ? 23:56:41 10° W 02:11:56 27° W 12:26:37 10° ESE visible
22 Jan ? 14:26:38 10° W 00:15:02 42° ENE 03:08:49 10° E visible
